Weather History for KSHR - August, 2013

Change the Weather History Date:

Monday, August 26, 2013

  Actual Average Record
Temperature  
Mean Temperature 79 °F 66 °F  
Max Temperature 95 °F 84 °F 102 °F (1926)
Min Temperature 62 °F 49 °F 30 °F (1910)
Degree Days  
Heating Degree Days 0 2  
Month to date heating degree days 0 23  
Since 1 June heating degree days 121 198  
Since 1 July heating degree days 1 49  
Cooling Degree Days 14 3  
Month to date cooling degree days 179 144  
Year to date cooling degree days 457 376  
Since 1 June cooling degree days 449 372  
Growing Degree Days 28 (Base 50)    
Moisture  
Dew Point 47 °F    
Average Humidity 39    
Maximum Humidity 60    
Minimum Humidity 17    
Precipitation  
Precipitation T in 0.02 in 0.39 in (1957)
Month to date precipitation 0.05 0.58  
Year to date precipitation 9.99 9.91  
Sea Level Pressure  
Sea Level Pressure 29.86 in    
Wind  
Wind Speed 5 mph (SSW)    
Max Wind Speed 21 mph    
Max Gust Speed 25 mph    
Visibility 10 miles    
Events      
T = Trace of Precipitation, MM = Missing Value Source: NWS Daily Summary

Daily Weather History Graph

Daily Weather History Graph

Search for Another Location

Airport or City:

Trip Planner

Search our weather history database for the weather conditions in past years. The results will help you decide how hot, cold, wet, or windy it might be!

Date:

Astronomy

Aug. 26, 2013 Rise Set
Actual Time 6:23 AM MDT 7:54 PM MDT
Civil Twilight 5:52 AM MDT 8:25 PM MDT
Nautical Twilight 5:15 AM MDT 9:02 PM MDT
Astronomical Twilight 4:35 AM MDT 9:41 PM MDT
Moon 10:49 PM MDT (8/26) 12:45 PM MDT (8/26)
Length of Visible Light 14h 32m
Length of Day
13h 31m
Waning Gibbous, 66% of the Moon is Illuminated
Aug 26
Waning Gibbous
Aug 28
Last Quarter
Sep 5
New
Sep 12
First Quarter
Sep 19
Full

Hourly Weather History & Observations

Time (MDT) Temp. Dew Point Humidity Pressure Visibility Wind Dir Wind Speed Gust Speed Precip Events Conditions
12:53 AM 68.0 °F 48.0 °F 49% 29.85 in 10.0 mi Calm Calm - N/A   Clear
1:53 AM 64.0 °F 48.0 °F 56% 29.85 in 10.0 mi Calm Calm - N/A   Clear
2:53 AM 72.0 °F 45.0 °F 38% 29.82 in 10.0 mi South 8.1 mph - N/A   Clear
3:53 AM 70.0 °F 45.0 °F 41% 29.81 in 10.0 mi Calm Calm - N/A   Clear
4:53 AM 64.9 °F 46.9 °F 52% 29.82 in 10.0 mi WSW 3.5 mph - N/A   Clear
5:53 AM 66.0 °F 46.9 °F 50% 29.84 in 10.0 mi North 8.1 mph - N/A   Clear
6:53 AM 63.0 °F 48.0 °F 58% 29.87 in 10.0 mi West 4.6 mph - N/A   Clear
7:53 AM 68.0 °F 50.0 °F 52% 29.89 in 10.0 mi Calm Calm - N/A   Clear
8:53 AM 70.0 °F 51.1 °F 51% 29.91 in 10.0 mi Calm Calm - N/A   Clear
9:53 AM 78.1 °F 53.1 °F 42% 29.91 in 10.0 mi Calm Calm - N/A   Clear
10:53 AM 86.0 °F 48.9 °F 28% 29.90 in 10.0 mi ENE 5.8 mph - N/A   Clear
11:53 AM 91.9 °F 44.1 °F 19% 29.88 in 10.0 mi NNE 9.2 mph - N/A   Clear
12:53 PM 93.0 °F 43.0 °F 18% 29.87 in 10.0 mi ENE 8.1 mph - N/A   Clear
1:53 PM 93.9 °F 43.0 °F 17% 29.87 in 10.0 mi NE 5.8 mph - N/A   Partly Cloudy
2:53 PM 90.0 °F 43.0 °F 19% 29.86 in 10.0 mi North 5.8 mph - N/A   Partly Cloudy
3:53 PM 91.9 °F 42.1 °F 18% 29.85 in 10.0 mi Calm Calm - N/A   Clear
4:53 PM 91.9 °F 42.1 °F 18% 29.85 in 10.0 mi Variable 3.5 mph - N/A   Partly Cloudy
5:53 PM 90.0 °F 45.0 °F 21% 29.86 in 10.0 mi SSE 9.2 mph - N/A   Clear
6:53 PM 82.9 °F 52.0 °F 34% 29.87 in 10.0 mi SW 3.5 mph - N/A   Clear
7:53 PM 78.1 °F 50.0 °F 37% 29.87 in 10.0 mi SW 5.8 mph - N/A   Scattered Clouds
8:53 PM 78.1 °F 48.9 °F 36% 29.88 in 10.0 mi South 3.5 mph - 0.00 in   Clear
9:53 PM 81.0 °F 46.0 °F 29% 29.87 in 10.0 mi SSW 18.4 mph 25.3 mph 0.00 in   Mostly Cloudy
10:53 PM 77.0 °F 48.0 °F 36% 29.86 in 10.0 mi South 5.8 mph - N/A   Scattered Clouds
11:53 PM 75.9 °F 48.0 °F 37% 29.85 in 10.0 mi Calm Calm - N/A   Partly Cloudy